Showing default

ION SCV-014, 62630

Orbit data source: Space-Track

ION SCV-014, 62630 is a payload satellite owned by D-ORBIT (IT) in SSO that was launched on Tue, 14 Jan 2025 UTC via an FALCON 9 launch vehicle from the Air Force Western Test Range (AFWTR). Payload-class satellites include a variety of spacecraft equipped with specific instruments for various scientific and technological missions. These include communications satellites like Starlink; space stations such as the ISS; scientific satellites like the Hubble; Earth observation satellites from companies like Planet Labs, Umbra, and HawkEye 360; GPS; miniature CubeSats for education and research; and military/defense satellites.

Loading next visibility...
Identifier
62630, 2025-009X
Orbit
SSO
Country
Flag of ITIT
Related business
Manufacturer
D-ORBIT
Mission
Operational Commercial Technology
Bus & Motor
ION-SC, PM200
Mass
220 kg wet, 150 kg dry
Launch date (UTC)
2025-01-14 (1 year ago)
Launch vehicle
FALCON 9
Launch site
Air Force Western Test Range (AFWTR)
Object type
Payload
Rocket body
Debris
Shape & HBR
Box, 1.1 m
Radar Cross Section
0.240 m², Large (>1 m²)

Expand to show TLE details & history
Last TLE update: 15 hours ago

TLE from 15 hours ago
0 ION SCV-014
1 62630U 25009X   26035.20398669  .00002387  00000-0  17369-3 0  9991
2 62630  97.4998 112.3331 0003632 215.6560 144.4425 15.04732165 57985
Epoch: 2026-02-04T04:53Z
TLE epoch observation values (Epoch: 2026-02-04T04:53:44.450Z)
Latitude
0.00006°
Longitude
-95.47604°
Altitude
557.443 km
Speed
7.582 km/s
True Right ascension
07h 29m 19s
True Declination
0° 00' 00"
Sunlit
Object was in full shadow at epoch
Visualization orbit readout
Latitude
Unknown
Longitude
Unknown
Altitude
Unknown
Speed
Unknown
Apparent Right ascension
Unknown
Apparent Declination
Unknown
Sunlit
N/A
Visualization observer readout
Local Sidereal Time
21:40:23
Azimuth
Unknown
Elevation
Unknown
Doppler factor
Unknown
Orbital elements
Apogee altitude
551.834 km
Perigee altitude
546.802 km
Semi-major axis
6,927.455 km
Eccentricity
0.00036
Inclination
97.4998°
RAAN
112.3331°
Arg. of periapsis
215.656°
True anomaly
144.46669°
Mean anomaly
144.4425°
Eccentric anomaly
144.4546°
Mean motion
3.76429 °/min
Orbital period
95.64 mins
BSTAR
0.00017369
Loading maneuver chart data...
Computing Atmospheric mass density...
Loading historical data...
Loading historical data...
Loading historical data...
Loading historical data...
Loading historical data...
Loading historical data...
Loading historical data...

Documentation

Showing up to 5 results
|